TimeEET,TemperatureF,Dew PointF,Humidity,Sea Level PressureIn,VisibilityMPH,Wind Direction,Wind SpeedMPH,Gust SpeedMPH,PrecipitationIn,Events,Conditions,WindDirDegrees,DateUTC
12:50 AM,46.4,37.4,71,29.53,6.2,SSW,6.9,-,N/A,,Partly Cloudy,210,2013-01-18 22:50:00
1:50 AM,44.6,37.4,76,29.56,6.2,Calm,Calm,-,N/A,,Scattered Clouds,0,2013-01-18 23:50:00
2:50 AM,46.4,37.4,71,29.59,6.2,SSW,3.5,-,N/A,,Scattered Clouds,210,2013-01-19 00:50:00
3:50 AM,42.8,37.4,81,29.59,6.2,NNE,3.5,-,N/A,,Partly Cloudy,30,2013-01-19 01:50:00
4:50 AM,39.2,35.6,87,29.59,6.2,NNW,3.5,-,N/A,,Partly Cloudy,330,2013-01-19 02:50:00
5:20 AM,39.2,37.4,93,29.59,6.2,NNW,3.5,-,N/A,,Partly Cloudy,330,2013-01-19 03:20:00
5:50 AM,41.0,37.4,87,29.59,6.2,Calm,Calm,-,N/A,,Partly Cloudy,0,2013-01-19 03:50:00
6:20 AM,39.2,35.6,87,29.59,6.2,Calm,Calm,-,N/A,,Partly Cloudy,0,2013-01-19 04:20:00
6:50 AM,41.0,37.4,87,29.62,6.2,Calm,Calm,-,N/A,,Partly Cloudy,0,2013-01-19 04:50:00
7:20 AM,39.2,37.4,93,29.62,6.2,Calm,Calm,-,N/A,,Scattered Clouds,0,2013-01-19 05:20:00
7:50 AM,42.8,39.2,87,29.65,6.2,Calm,Calm,-,N/A,,Mostly Cloudy,0,2013-01-19 05:50:00
8:20 AM,44.6,39.2,81,29.65,6.2,Calm,Calm,-,N/A,,Scattered Clouds,0,2013-01-19 06:20:00
8:50 AM,44.6,39.2,81,29.68,6.2,Calm,Calm,-,N/A,,Scattered Clouds,0,2013-01-19 06:50:00
9:20 AM,50.0,37.4,62,29.65,6.2,SW,8.1,-,N/A,,Scattered Clouds,230,2013-01-19 07:20:00
9:50 AM,50.0,39.2,66,29.68,6.2,Variable,3.5,-,N/A,,Scattered Clouds,0,2013-01-19 07:50:00
10:20 AM,53.6,39.2,58,29.71,6.2,SSW,8.1,-,N/A,,Scattered Clouds,200,2013-01-19 08:20:00
10:50 AM,53.6,35.6,51,29.71,6.2,West,10.4,-,N/A,,Scattered Clouds,260,2013-01-19 08:50:00
11:20 AM,55.4,37.4,51,29.71,6.2,SW,13.8,-,N/A,,Scattered Clouds,230,2013-01-19 09:20:00
11:50 AM,55.4,35.6,47,29.71,6.2,SW,13.8,-,N/A,,Scattered Clouds,230,2013-01-19 09:50:00
12:20 PM,55.4,35.6,47,29.71,6.2,West,9.2,-,N/A,,Scattered Clouds,260,2013-01-19 10:20:00
12:50 PM,55.4,33.8,44,29.71,6.2,West,11.5,23.0,N/A,,Scattered Clouds,270,2013-01-19 10:50:00
1:20 PM,57.2,35.6,44,29.68,6.2,SW,10.4,21.9,N/A,,Partly Cloudy,230,2013-01-19 11:20:00
1:50 PM,57.2,35.6,44,29.71,6.2,WSW,11.5,-,N/A,,Partly Cloudy,250,2013-01-19 11:50:00
2:20 PM,55.4,35.6,47,29.71,6.2,West,17.3,28.8,N/A,,Partly Cloudy,260,2013-01-19 12:20:00
2:50 PM,57.2,33.8,41,29.71,6.2,West,11.5,23.0,N/A,,Partly Cloudy,260,2013-01-19 12:50:00
3:20 PM,57.2,33.8,41,29.71,6.2,West,13.8,-,N/A,,Partly Cloudy,280,2013-01-19 13:20:00
3:50 PM,55.4,35.6,47,29.74,6.2,West,13.8,-,N/A,,Scattered Clouds,270,2013-01-19 13:50:00
4:20 PM,55.4,33.8,44,29.74,6.2,West,15.0,-,N/A,,Scattered Clouds,280,2013-01-19 14:20:00
4:50 PM,55.4,33.8,44,29.77,6.2,West,9.2,-,N/A,,Scattered Clouds,280,2013-01-19 14:50:00
5:20 PM,55.4,33.8,44,29.77,6.2,NW,6.9,-,N/A,,Scattered Clouds,320,2013-01-19 15:20:00
5:50 PM,53.6,32.0,44,29.77,6.2,West,6.9,-,N/A,,Scattered Clouds,280,2013-01-19 15:50:00
6:20 PM,53.6,32.0,44,29.80,6.2,WNW,6.9,-,N/A,,Scattered Clouds,290,2013-01-19 16:20:00
6:50 PM,53.6,33.8,47,29.80,6.2,West,8.1,-,N/A,,Mostly Cloudy,280,2013-01-19 16:50:00
7:20 PM,50.0,35.6,58,29.80,6.2,Calm,Calm,-,N/A,,Mostly Cloudy,0,2013-01-19 17:20:00
7:50 PM,50.0,35.6,58,29.80,6.2,Calm,Calm,-,N/A,,Mostly Cloudy,0,2013-01-19 17:50:00
8:20 PM,50.0,35.6,58,29.83,6.2,Calm,Calm,-,N/A,,Mostly Cloudy,0,2013-01-19 18:20:00
8:50 PM,51.8,35.6,54,29.83,6.2,Calm,Calm,-,N/A,,Mostly Cloudy,0,2013-01-19 18:50:00
9:50 PM,51.8,37.4,58,29.83,6.2,Calm,Calm,-,N/A,,Partly Cloudy,0,2013-01-19 19:50:00
10:20 PM,51.8,37.4,58,29.83,6.2,Calm,Calm,-,N/A,,Partly Cloudy,0,2013-01-19 20:20:00
10:50 PM,44.6,37.4,76,29.86,6.2,Calm,Calm,-,N/A,,Partly Cloudy,0,2013-01-19 20:50:00
11:50 PM,42.8,37.4,81,29.86,6.2,Calm,Calm,-,N/A,,Partly Cloudy,0,2013-01-19 21:50:00